Waarnemingen

Advertentie
Mijn weer
Le Talut, Frankrijk (7207): temperatuur & dauwpunt: 15.07.2018 21:00:00 - 21.07.2018 21:00:00 (CEST)Le Talut, Frankrijk (7207): windsnelheid & windstoten: 15.07.2018 21:00:00 - 21.07.2018 21:00:00 (CEST)Le Talut, Frankrijk (7207): windrichting: 15.07.2018 21:00:00 - 21.07.2018 21:00:00 (CEST)Le Talut, Frankrijk (7207): luchtdruk: 15.07.2018 21:00:00 - 21.07.2018 21:00:00 (CEST)Le Talut, Frankrijk (7207): zicht: 15.07.2018 21:00:00 - 21.07.2018 21:00:00 (CEST)Le Talut, Frankrijk (7207): neerslag: 15.07.2018 21:00:00 - 21.07.2018 21:00:00 (CEST)
Datum & Tijd tt [°C] td [°C] ff [km/u] ff [kn] fx [km/u] fx [kn] dd ppp [hPa] vv [km] rr [mm]
21.07.2018 21:00:00 19,9 17,3 6 4 11 6 ZZW 1015,8 - 0,0
21.07.2018 20:00:00 19,8 17,0 8 4 16 9 ZO 1015,5 20 0,0
21.07.2018 19:00:00 20,1 17,3 12 7 24 13 ZO 1015,3 - 0,0
21.07.2018 18:00:00 19,7 16,9 16 9 29 16 ZO 1015,3 - 0,0
21.07.2018 17:00:00 20,4 17,2 11 6 23 12 ZO 1015,5 15 0,0
21.07.2018 16:00:00 19,8 17,2 11 6 28 15 O 1015,6 - 0,0
21.07.2018 15:00:00 19,0 16,6 12 6 34 18 OZO 1015,4 - 0,0
21.07.2018 14:00:00 19,9 16,9 8 5 22 12 OZO 1015,1 15 0,0
21.07.2018 13:00:00 20,0 17,0 7 4 14 7 OZO 1014,8 - 0,0
21.07.2018 12:00:00 19,2 18,0 9 5 24 13 ZZW 1014,8 - 0,0
21.07.2018 11:00:00 17,1 16,5 16 9 27 15 ZZW 1014,6 12 1,0
21.07.2018 10:00:00 16,3 15,7 16 9 23 12 Z 1015,0 - 1,2
21.07.2018 09:00:00 16,2 15,4 5 3 10 6 O 1015,1 - 5,2
21.07.2018 08:00:00 16,3 15,5 5 3 13 7 ZW 1015,1 0,9 6,1
21.07.2018 07:00:00 16,3 15,3 9 5 18 10 WZW 1014,8 - 1,6
21.07.2018 06:00:00 17,1 15,1 2 1 5 3 N 1014,8 - 0,0
21.07.2018 05:00:00 17,2 15,2 3 2 10 6 WNW 1015,0 - 0,0
21.07.2018 04:00:00 17,2 15,2 8 5 13 7 NW 1015,5 - 0,0
21.07.2018 03:00:00 17,0 14,8 8 4 16 9 NW 1015,9 - 0,0
21.07.2018 02:00:00 17,3 14,6 13 7 21 12 NW 1016,5 - 0,0
21.07.2018 01:00:00 17,1 13,8 15 8 32 17 NW 1016,9 - 0,0
21.07.2018 00:00:00 17,3 13,6 20 11 40 22 NW 1016,7 - 0,0
20.07.2018 23:00:00 17,4 13,5 22 12 42 23 NW 1016,5 - 0,0
20.07.2018 22:00:00 17,9 11,9 22 12 45 24 WNW 1016,4 - 0,0
20.07.2018 21:00:00 18,9 11,5 23 12 41 22 WNW 1016,4 - 0,0
20.07.2018 20:00:00 19,5 11,5 21 11 43 23 WNW 1016,4 - 0,0
20.07.2018 19:00:00 20,2 12,2 21 12 42 23 WNW 1016,7 - 0,0
20.07.2018 18:00:00 20,7 12,7 20 11 40 21 WNW 1016,7 - 0,0
20.07.2018 17:00:00 21,3 12,4 20 11 35 19 WNW 1016,9 - 0,0
20.07.2018 16:00:00 21,5 13,7 18 10 36 19 W 1017,3 - 0,0
20.07.2018 15:00:00 21,2 13,4 17 9 33 18 WNW 1017,3 - 0,0
20.07.2018 14:00:00 20,9 14,5 17 9 35 19 W 1017,7 20 0,0
20.07.2018 13:00:00 20,6 14,3 16 8 34 18 WNW 1018,0 - 0,0
20.07.2018 12:00:00 20,0 13,9 17 9 35 19 WNW 1018,0 - 0,0
20.07.2018 11:00:00 19,1 13,7 21 11 33 18 NW 1017,9 20 0,0
20.07.2018 10:00:00 18,7 14,0 19 10 36 19 NW 1017,8 - 0,0
20.07.2018 09:00:00 17,6 13,7 24 13 32 18 NW 1017,7 - 0,0
20.07.2018 08:00:00 17,3 13,8 21 11 31 17 NW 1017,7 20 0,0
20.07.2018 07:00:00 16,4 13,5 19 11 29 15 NNW 1017,6 - 0,0
20.07.2018 06:00:00 15,3 13,0 14 7 22 12 NNW 1017,6 - 0,0
20.07.2018 05:00:00 15,3 12,4 13 7 21 12 NNW 1017,7 - 0,0
20.07.2018 04:00:00 15,6 12,5 14 8 27 15 N 1017,9 - 0,0
20.07.2018 03:00:00 15,8 12,2 16 9 30 16 N 1018,1 - 0,0
20.07.2018 02:00:00 16,3 12,1 17 9 30 16 N 1018,4 - 0,0
20.07.2018 01:00:00 17,2 12,3 18 10 27 14 N 1018,3 - 0,0
20.07.2018 00:00:00 17,8 12,9 16 8 26 14 N 1018,3 - 0,0
19.07.2018 23:00:00 17,4 12,3 16 8 18 10 N 1017,7 - 0,0
19.07.2018 22:00:00 19,1 13,7 14 8 21 12 NNO 1017,4 - 0,0
19.07.2018 21:00:00 21,2 14,4 13 7 22 12 N 1016,8 - 0,0
19.07.2018 20:00:00 21,7 16,2 13 7 23 12 NNW 1016,8 20 0,0
19.07.2018 19:00:00 21,3 16,0 13 7 26 14 NW 1017,0 - 0,0
19.07.2018 18:00:00 21,2 16,2 10 5 19 10 WNW 1017,1 - 0,0
19.07.2018 17:00:00 21,3 14,9 15 8 29 16 NW 1017,6 20 0,0
19.07.2018 16:00:00 21,0 14,4 11 6 25 14 NW 1017,3 - 0,0
19.07.2018 15:00:00 19,9 14,9 8 5 17 9 WZW 1018,1 - 0,0
19.07.2018 14:00:00 20,6 14,0 12 7 25 13 W 1018,0 20 0,0
19.07.2018 13:00:00 20,7 12,9 14 8 25 13 NNW 1017,8 - 0,0
19.07.2018 12:00:00 21,6 12,4 13 7 29 15 N 1018,0 - 0,0
19.07.2018 11:00:00 20,4 13,1 20 11 33 18 NNO 1017,9 20 0,0
19.07.2018 10:00:00 19,5 13,0 23 12 35 19 NNO 1017,9 - 0,0
19.07.2018 09:00:00 17,9 12,8 19 11 31 17 NNO 1017,6 - 0,0
19.07.2018 08:00:00 16,4 13,1 12 6 21 11 N 1017,5 20 0,0
19.07.2018 07:00:00 15,3 12,2 4 2 12 6 N 1017,4 - 0,0
19.07.2018 06:00:00 16,2 12,7 4 2 25 13 NW 1017,2 - 0,0
19.07.2018 05:00:00 16,2 12,4 18 10 32 17 NNO 1016,9 - 0,0
19.07.2018 04:00:00 16,0 12,2 20 11 32 18 NNO 1017,1 - 0,0
19.07.2018 03:00:00 16,8 11,7 22 12 38 20 NNO 1017,5 - 0,0
19.07.2018 02:00:00 17,4 12,1 23 12 36 19 NNO 1017,9 - 0,0
19.07.2018 01:00:00 18,1 13,0 24 13 44 24 NO 1018,0 - 0,0
19.07.2018 00:00:00 18,9 13,7 24 13 37 20 NNO 1017,8 - 0,0
18.07.2018 23:00:00 19,0 15,3 14 8 19 10 N 1017,5 - 0,0
18.07.2018 22:00:00 20,1 15,7 9 5 21 11 NW 1017,1 - 0,0
18.07.2018 21:00:00 20,5 15,9 12 7 31 17 NW 1017,1 - 0,0
18.07.2018 20:00:00 21,3 15,2 19 11 35 19 NW 1017,0 20 0,0
18.07.2018 19:00:00 21,9 14,0 14 8 29 15 WNW 1017,4 - 0,0
18.07.2018 18:00:00 22,7 13,7 14 8 29 15 WNW 1017,5 - 0,0
18.07.2018 17:00:00 22,4 13,2 17 9 28 15 W 1017,8 - 0,0
18.07.2018 16:00:00 22,4 12,1 17 9 27 15 W 1017,8 - 0,0
18.07.2018 15:00:00 22,1 12,1 18 10 31 17 W 1017,8 - 0,0
18.07.2018 14:00:00 21,6 12,2 18 10 30 16 W 1017,9 20 0,0
18.07.2018 13:00:00 21,2 12,3 14 8 29 16 WNW 1018,3 - 0,0
18.07.2018 12:00:00 20,9 11,0 14 8 29 16 N 1018,5 - 0,0
18.07.2018 11:00:00 20,1 11,0 17 9 28 15 N 1018,6 20 0,0
18.07.2018 10:00:00 19,2 11,0 16 9 27 14 N 1018,8 - 0,0
18.07.2018 09:00:00 18,6 11,7 13 7 21 11 N 1018,8 - 0,0
18.07.2018 08:00:00 16,0 12,4 13 7 18 10 N 1018,8 - 0,0
18.07.2018 07:00:00 14,0 11,3 14 7 18 10 N 1018,8 - 0,0
18.07.2018 06:00:00 13,9 11,1 14 8 19 11 N 1018,7 - 0,0
18.07.2018 05:00:00 14,1 11,6 15 8 20 11 N 1018,7 - 0,0
18.07.2018 04:00:00 14,2 11,4 16 8 21 12 N 1019,1 - 0,0
18.07.2018 03:00:00 14,4 11,2 16 9 22 12 N 1019,3 - 0,0
18.07.2018 02:00:00 15,6 12,2 16 8 21 11 N 1019,4 - 0,0
18.07.2018 01:00:00 16,9 11,6 11 6 23 13 NNW 1019,6 - 0,0
18.07.2018 00:00:00 18,3 11,6 11 6 25 14 WNW 1019,8 - 0,0
17.07.2018 23:00:00 18,7 11,5 13 7 28 15 W 1019,7 - 0,0
17.07.2018 22:00:00 19,1 11,6 16 9 31 17 W 1019,4 - 0,0
17.07.2018 21:00:00 19,9 12,2 16 9 28 15 W 1019,2 - 0,0
17.07.2018 20:00:00 21,0 12,4 17 9 27 15 W 1019,3 - 0,0
17.07.2018 19:00:00 21,9 11,3 15 8 24 13 W 1019,4 - 0,0
17.07.2018 18:00:00 22,6 12,5 10 6 21 12 W 1019,6 - 0,0
17.07.2018 17:00:00 22,5 11,9 12 6 25 13 W 1019,9 20 0,0
17.07.2018 16:00:00 22,2 11,0 11 6 22 12 W 1020,1 - 0,0
17.07.2018 15:00:00 22,4 13,2 13 7 23 12 WNW 1020,1 - 0,0
17.07.2018 14:00:00 19,2 14,7 4 2 9 5 ZW 1020,6 20 0,0
17.07.2018 13:00:00 18,7 15,9 5 3 9 5 ZO 1020,7 - 0,2
17.07.2018 12:00:00 17,2 14,3 7 4 20 11 ZO 1020,7 - 0,0
17.07.2018 11:00:00 18,0 14,3 15 8 25 14 Z 1020,2 20 0,0
17.07.2018 10:00:00 18,9 13,3 12 6 18 10 NNW 1020,0 - 0,0
17.07.2018 09:00:00 18,6 13,9 5 3 10 5 N 1019,9 - 0,0
17.07.2018 08:00:00 17,5 13,8 5 3 15 8 N 1019,7 20 0,0
17.07.2018 07:00:00 17,1 13,4 9 5 16 9 N 1019,4 - 0,0
17.07.2018 06:00:00 17,3 14,0 12 6 17 9 N 1019,1 - 0,0
17.07.2018 05:00:00 16,8 13,5 11 6 19 11 N 1019,0 - 0,0
17.07.2018 04:00:00 16,9 13,8 12 6 25 13 N 1019,0 - 0,0
17.07.2018 03:00:00 17,8 13,7 16 9 34 18 NNW 1019,2 - 0,0
17.07.2018 02:00:00 17,9 14,2 23 12 40 22 NW 1019,3 - 0,0
17.07.2018 01:00:00 18,3 14,6 22 12 39 21 WNW 1019,0 - 0,0
17.07.2018 00:00:00 18,6 15,1 22 12 39 21 WNW 1018,8 - 0,0
16.07.2018 23:00:00 19,2 16,2 18 10 37 20 W 1018,6 - 0,0
16.07.2018 22:00:00 20,0 17,2 24 13 35 19 W 1017,6 - 0,0
16.07.2018 21:00:00 21,0 16,6 22 12 37 20 W 1017,5 - 0,0
16.07.2018 20:00:00 21,1 16,5 22 12 42 23 W 1017,3 25 0,0
16.07.2018 19:00:00 22,1 16,6 24 13 42 23 W 1017,1 - 0,0
16.07.2018 18:00:00 22,3 16,6 23 12 48 26 W 1017,1 - 0,0
16.07.2018 17:00:00 22,3 16,6 29 16 52 28 W 1017,0 20 0,0
16.07.2018 16:00:00 22,4 16,4 26 14 45 24 W 1016,8 - 0,0
16.07.2018 15:00:00 21,8 16,1 24 13 39 21 W 1016,9 - 0,0
16.07.2018 14:00:00 21,6 15,9 18 10 35 19 WNW 1016,9 20 0,0
16.07.2018 13:00:00 21,7 16,0 16 9 30 16 WNW 1016,7 - 0,0
16.07.2018 12:00:00 22,5 16,3 17 9 34 18 W 1016,7 - 0,0
16.07.2018 11:00:00 21,4 15,9 19 11 33 18 NW 1016,4 - 0,0
16.07.2018 10:00:00 21,1 13,5 23 12 34 18 NW 1016,1 - 0,0
16.07.2018 09:00:00 20,6 14,9 22 12 31 17 NW 1015,5 - 0,0
16.07.2018 08:00:00 19,7 15,6 13 7 22 12 NNW 1015,0 20 0,0
16.07.2018 07:00:00 18,5 15,4 14 8 21 11 NNW 1015,4 - 0,0
16.07.2018 06:00:00 17,6 12,7 13 7 17 9 N 1015,5 - 0,0
16.07.2018 05:00:00 17,8 13,3 14 8 19 10 NNW 1015,4 - 0,0
16.07.2018 04:00:00 18,0 12,7 10 6 21 11 NNW 1015,5 - 0,0
16.07.2018 03:00:00 17,6 12,3 16 9 22 12 N 1015,6 - 0,0
16.07.2018 02:00:00 19,2 12,5 13 7 25 14 N 1015,9 - 0,0
16.07.2018 01:00:00 19,9 14,3 18 10 29 16 N 1015,8 - 0,0
16.07.2018 00:00:00 21,1 16,1 21 11 29 16 NNW 1015,7 - 0,0
15.07.2018 23:00:00 20,8 16,2 15 8 29 15 NW 1015,8 - 0,0
15.07.2018 22:00:00 21,3 16,9 16 9 31 17 NW 1015,3 - 0,0
15.07.2018 21:00:00 22,7 17,6 16 9 30 16 NW 1015,2 - 0,0

tt = temperatuur
td = dauwpunt
ff = windsnelheid
fx = windstoten
dd = windrichting
ppp = luchtdruk
vv = zicht
rr = neerslag

Weerstations in de omgeving